Back to catalog

CHONGZHOU

AliveScienceSSO
NORAD 63989·PAYLOAD·🇨🇳 China
This satellite name has not been confirmed by official sources yet.

Launched May 14, 2025 from Jiuquan Satellite Launch Center

Loading…

Next Passes (next 24 hours)

TLE

FreshSource: Space-Track

Epoch: Sep 14, 2026, 23:17 UTC

1 63989U 25100H   26257.97043677  .00038171  00000-0  93685-3 0  9992
2 63989  97.3608 334.7973 0005514 323.7217  36.3655 15.40579558 74666

Track CHONGZHOU in real time with AllMySat

Download on the App Store